STARLINK-37136, 68347

Orbit data source: Space-Track

STARLINK-37136, 68347 is a payload satellite owned by SpaceX/Seattle (US) in LEO that was launched on Sun, 22 Mar 2026 UTC via an FALCON 9 launch vehicle from the Air Force Eastern Test Range (AFETR). Payload-class satellites include a variety of spacecraft equipped with specific instruments for various scientific and technological missions. These include communications satellites like Starlink; space stations such as the ISS; scientific satellites like the Hubble; Earth observation satellites from companies like Planet Labs, Umbra, and HawkEye 360; GPS; miniature CubeSats for education and research; and military/defense satellites.

Loading next visibility...
Identifier
68347, 2026-059AC
Orbit
LEO
Country
Flag of USUS
Related business
Manufacturer
SpaceX/Seattle
Mission
Operational spacecraft
Bus & Motor
STARLINK V2MO, Unknown motor
Mass
575 kg wet, ~530 kg dry
Launch date (UTC)
2026-03-22 (3 months ago)
Launch vehicle
FALCON 9
Launch site
Air Force Eastern Test Range (AFETR)
Object type
Payload
Rocket body
Debris
Shape & HBR
Unknown shape, 17.7 m
Radar Cross Section
Large (>1 m²)

Expand to show TLE details & history
Last TLE update: 10 hours ago

TLE from 10 hours ago
0 STARLINK-37136
1 68347U 26059AC  26171.45168808  .00009149  00000-0  32056-3 0  9999
2 68347  53.1567 230.6039 0001060  90.7044 269.4079 15.30208872 13918
Epoch: 2026-06-20T10:50Z
TLE epoch observation values (Epoch: 2026-06-20T10:50:25.850Z)
Latitude
0.00006°
Longitude
159.33012°
Altitude
476.096 km
Speed
7.629 km/s
True Right ascension
15h 22m 24s
True Declination
0° 00' 00"
Sunlit
Object was in full shadow at epoch
Visualization orbit readout
Latitude
Unknown
Longitude
Unknown
Altitude
Unknown
Speed
Unknown
Apparent Right ascension
Unknown
Apparent Declination
Unknown
Sunlit
N/A
Visualization observer readout
Local Sidereal Time
07:18:06
Azimuth
Unknown
Elevation
Unknown
Doppler factor
Unknown
Orbital elements
Apogee altitude
476.172 km
Perigee altitude
474.719 km
Semi-major axis
6,853.583 km
Eccentricity
0.00011
Inclination
53.1567°
RAAN
230.6039°
Arg. of periapsis
90.7044°
True anomaly
269.39575°
Mean anomaly
269.4079°
Eccentric anomaly
269.40183°
Mean motion
3.82531 °/min
Orbital period
94.11 mins
BSTAR
0.00032056
Loading maneuver chart data...
Computing Atmospheric mass density...
Loading historical data...
Loading historical data...
Loading historical data...
Loading historical data...
Loading historical data...
Loading historical data...
Loading historical data...

Documentation

Showing up to 5 results
|